Hourly Data Report for June 17, 2021

OTTAWA INTL A
ONTARIO
Current Station Operator: NAVCAN

45°19'00.000" N
75°40'00.000" W
114.90 m
6106001
71628
YOW

Download Data

Hourly Data (June 2021)
Hourly Data Report for June 17, 2021
TIME
LST
Temp Definition
°C
Dew Point Definition
°C
Rel Hum Definition
%
Precip. Amount Definition
mm

Wind Dir Definition
10's deg

Wind Spd Definition
km/h
Visibility Definition
km
Stn Press Definition
kPa
Hmdx Definition


Wind Chill Definition


Weather Definition


00:00 11.2 5.1 66   26 10 24.1 99.87     LegendNANA
01:00 9.5 4.8 72   26 13 24.1 99.85     Clear
02:00 8.9 4.8 75   27 10 24.1 99.84     LegendNANA
03:00 9.2 4.2 71   27 11 24.1 99.91     LegendNANA
04:00 8.4 4.1 74   27 11 24.1 99.91     Clear
05:00 8.7 4.3 74   27 8 24.1 99.94     LegendNANA
06:00 12.4 4.8 59   28 15 24.1 100.01     LegendNANA
07:00 14.5 5.1 53   27 12 24.1 100.07     Clear
08:00 16.3 5.0 47   27 11 24.1 100.11     LegendNANA
09:00 18.6 2.0 33   29 12 24.1 100.08     LegendNANA
10:00 20.8 4.5 34   31 15 24.1 100.07     Mainly Clear
11:00 22.0 3.5 29   31 23 24.1 100.02     LegendNANA
12:00 23.0 2.7 26   29 18 24.1 99.97     LegendNANA
13:00 24.2 0.2 20   26 21 24.1 99.93     Mainly Clear
14:00 25.1 2.4 22   26 21 24.1 99.89     LegendNANA
15:00 26.1 3.1 22   21 17 24.1 99.84 25   LegendNANA
16:00 26.1 3.8 23   26 14 24.1 99.78 25   Mainly Clear
17:00 25.7 3.3 23   23 19 24.1 99.75     LegendNANA
18:00 24.2 8.2 36   20 18 24.1 99.77 25   LegendNANA
19:00 22.2 8.3 41   18 18 24.1 99.77     Mainly Clear
20:00 19.4 8.3 48   17 11 24.1 99.77     LegendNANA
21:00 18.7 7.9 49   19 14 24.1 99.82     LegendNANA
22:00 17.9 7.5 50   21 14 24.1 99.85     Mainly Clear
23:00 18.0 6.8 47   21 16 24.1 99.88     LegendNANA

Notes on Data Quality.

Legend

  • E = Estimated
  • M = Missing
  • NA = Not Available*
  • [empty] = Indicates an unobserved value
Date modified: